Regional Weather Roundup
Issued by NWS

Home | Current Version | Previous Version | Graphics & Text | Print | Product List | Glossary On
Versions: 1 2 3 4 5 6 7 8 9 10 11 12 13 14 15 16 17 18 19 20 21 22 23 24 25 26 27 28
000
ASUS45 KSLC 231110
RWRUT

UTAH REGIONAL WEATHER ROUNDUP
NATIONAL WEATHER SERVICE SALT LAKE CITY UT
500 AM MDT SAT JUL 23 2016

UTZ001>011-023>025-231200-

NORTHERN UTAH

CITY           SKY/WX    TMP DP  RH WIND       PRES   REMARKS
BRIGHAM CITY     N/A     66  35  31 CALM      30.11S
HILL AFB       PTCLDY    69  36  30 SE5       30.13R
LOGAN          CLEAR     55  40  56 E3        30.15S
OGDEN          CLEAR     67  41  38 N5        30.10S
PROVO AIRPORT  CLEAR     66  46  48 SE6       30.10R
SALT LAKE CITY PTCLDY    67  39  35 W6        30.09S
VERNAL         CLOUDY    61  46  57 W5        30.16S
WENDOVER       CLEAR     72  32  23 CALM      30.14S
HEBER CITY     CLEAR     54  45  71 CALM      30.18R

$$

UTZ012>022-026-027-231200-

SOUTHERN/CENTRAL UTAH

CITY           SKY/WX    TMP DP  RH WIND       PRES   REMARKS
BLANDING       PTCLDY    64  48  55 N5        30.28F
BRYCE CANYON   PTCLDY    49  45  86 W5        30.36F
CEDAR CITY     CLEAR     65  36  34 NW5       30.17S
DELTA          CLEAR     70  30  23 N7        30.10S
MILFORD        CLEAR     64  25  22 W6        30.12S
MOAB/CYNLANDS  MOCLDY    71  51  49 E3        30.09F
PRICE          PTCLDY    61  48  62 N8        30.20S
ST GEORGE      SUNNY     84  46  26 E14       29.97S
KANAB          CLEAR     68  48  49 N6        30.17F

$$

REGIONAL REPORTS     COLORADO/ARIZONA

CITY           SKY/WX    TMP DP  RH WIND       PRES   REMARKS
CRAIG, CO      CLOUDY    51  44  77 CALM      30.25S
GRAND JUNCTION CLEAR     68  54  60 SE16      30.14S
RIFLE          CLEAR     61  51  70 E3        30.22S
MONTROSE       CLOUDY    59  50  72 S6        30.25F
CORTEZ         CLOUDY    58  47  66 NE5       30.24F
PAGE, AZ       PTCLDY    78  46  32 W3        30.08S
GRAND CANYON   PTCLDY    56  51  84 E5        30.29F
KINGMAN        PTCLDY    79  45  29 SE9       30.01S
FLAGSTAFF      CLOUDY    59  51  75 CALM      30.30F

$$

REGIONAL REPORTS    NEVADA/IDAHO/WYOMING

CITY           SKY/WX    TMP DP  RH WIND       PRES   REMARKS
LAS VEGAS, NV  CLEAR     91  23   8 S6        29.82S
ELY            PTCLDY    48  20  32 S13       30.25F
ELKO           PTCLDY    53  19  26 E3        30.21S
POCATELLO, ID  CLEAR     61  37  41 SW10      30.15R
BURLEY         CLEAR     61  42  49 W13G20    30.13S
EVANSTON, WY   CLOUDY    59  33  37 NE3       30.29F
ROCK SPRINGS   CLOUDY    60  36  40 W10       30.25R
KEMMERER         N/A     54  27  35 N5        30.30S

$$




USA.gov is the U.S. government's official web portal to all federal, state and local government web resources and services.